#timestamp,LO_Frequency,Hit,StdDev 
1506646815.3,286046977.9,N
1506646835.1,286046978.4,N
1506646855.9,286046978.7,N
1506646875.7,286046974.1,N
1506646895.5,286046971.4,N
1506646915.3,286046971.1,N
1506646935.2,286046972.9,N
1506646955.0,286046973.0,N
1506646955.9,286046973.0,N
1506646975.7,286046976.6,N
1506646995.6,286046973.9,N
1506647015.4,286046969.3,N
1506647035.2,286046973.9,N
1506647055.1,286046970.9,N
1506647056.0,286046970.9,N
1506647075.8,286046971.6,N
1506647095.6,286046973.5,N
1506647115.5,286046972.4,Y
1506647135.3,286046987.3,P
1506647155.1,286046984.7,P
1506647175.9,286046984.7,P
1506647195.7,286046988.2,Y
1506647215.5,286047004.9,P
1506647235.4,286047004.7,N
1506647255.2,286047003.2,N
1506647275.0,286047001.9,N
1506647275.9,286047001.9,N
1506647295.8,286047000.7,N
1506647315.6,286046998.4,N
1506647335.4,286047000.7,N
1506647355.3,286046999.9,N
1506647375.1,286046999.1,N
1506647376.0,286046999.1,N
1506647395.8,286046993.7,N
1506647415.7,286046995.7,N
1506647435.5,286046996.0,N
1506647455.3,286046995.8,N
1506647475.1,286046996.0,N
1506647495.9,286046993.7,N
1506647515.7,286046994.2,N
1506647535.5,286046993.4,N
1506647555.4,286046994.8,N
1506647575.2,286046994.5,N
1506647595.0,286046994.0,N
1506647595.9,286046994.0,N
1506647615.8,286046996.2,N
1506647635.6,286046996.0,N
1506647655.4,286046996.4,N
1506647675.3,286046995.3,N
1506647695.1,286046997.8,N
1506647696.0,286046997.8,N
1506647715.8,286046994.6,N
1506647735.7,286046994.6,N
1506647755.5,286046993.6,N
1506647775.3,286046995.0,N
1506647795.2,286046996.9,N
1506647815.9,286046995.3,N
1506647835.7,286046997.5,N
1506647855.5,286046997.8,N
1506647875.4,286046993.4,Y
1506647895.2,286047000.8,P
1506647915.0,286047005.9,N
1506647916.0,286047005.9,N
1506647935.8,286047006.5,N
1506647955.6,286047012.8,Y
1506647975.5,286047013.5,P
1506647995.3,286047014.2,N
1506648015.1,286047018.2,P
1506648035.8,286047015.7,N
1506648055.7,286047019.6,Y
1506648075.5,286047008.4,P
1506648095.3,286047012.1,P
1506648115.2,286047010.4,P
1506648135.0,286047011.9,Y
1506648135.9,286047011.9,P
1506648155.7,286047001.7,P
1506648175.6,286047001.9,N
1506648195.4,286047001.5,N
1506648215.2,286047004.0,N
1506648235.1,286047005.0,N
1506648236.0,286047005.0,N
1506648255.8,286047005.2,N
1506648275.6,286047006.0,N
1506648295.5,286047005.1,N
1506648315.3,286047008.6,N
1506648335.1,286047007.6,N
1506648355.9,286047008.8,N
1506648375.7,286047010.2,Y
1506648395.5,286047003.3,P
1506648415.4,286047003.5,N
1506648435.2,286047005.3,P
1506648455.0,286047007.1,Y
1506648455.9,286047007.1,P
1506648475.8,286046999.8,N
1506648495.6,286047000.4,N
1506648515.4,286047003.7,N
1506648535.3,286047002.0,N
1506648555.1,286047005.9,N
1506648556.0,286047005.9,N
1506648575.8,286047007.3,N
1506648595.7,286047009.2,Y
1506648615.5,286046999.7,P
1506648635.3,286047001.5,N
1506648655.2,286047001.8,N
1506648675.9,286046997.0,N
1506648695.7,286046995.7,N
1506648715.6,286046990.3,Y
1506648735.4,286046988.5,P
1506648755.2,286046985.7,N
1506648775.1,286046983.0,N
1506648776.0,286046983.0,N
1506648795.8,286046982.0,N
1506648815.6,286046978.1,Y
1506648835.5,286046989.8,P
1506648855.3,286046988.5,P
1506648875.1,286046990.8,P
1506648895.9,286046991.2,Y
1506648915.7,286046998.5,P
1506648935.5,286046998.8,N
1506648955.4,286046999.7,N
1506648975.2,286047000.9,N
1506648995.0,286046998.3,N
1506648995.9,286046998.3,N
1506649015.8,286046997.4,N
1506649035.6,286046995.9,N
1506649055.4,286046996.3,N
1506649075.2,286046995.3,N
1506649095.1,286046995.7,N
1506649096.0,286046995.7,N
1506649115.8,286046990.4,Y
1506649135.7,286046990.4,P
1506649155.5,286046991.3,N
1506649175.3,286046991.2,P
1506649195.2,286046988.9,Y
1506649215.9,286046999.5,P
1506649235.7,286046995.3,N
1506649255.6,286046997.3,N
1506649275.4,286046997.1,N
1506649295.2,286046998.8,N
1506649315.0,286046998.3,N
1506649315.9,286046998.3,N
1506649335.8,286047005.9,N
1506649355.6,286047006.8,N
1506649375.4,286047004.1,N
1506649395.3,286047001.8,N
1506649415.1,286047003.6,N
1506649435.8,286047004.3,N
1506649455.7,286047000.6,N
1506649475.5,286046996.9,N
1506649495.3,286046997.1,N
1506649515.2,286046995.2,N
1506649535.9,286046996.1,N
1506649555.7,286046993.9,N
1506649575.5,286046994.2,N
1506649595.4,286046993.9,N
1506649615.2,286046998.0,N
1506649635.0,286046997.3,N
1506649635.9,286046997.3,N
1506649655.8,286046993.4,N
1506649675.6,286046996.4,N
1506649695.4,286046994.7,N
1506649715.3,286046992.1,N
1506649735.1,286046997.4,N
1506649736.0,286046997.4,N
1506649755.8,286047002.5,N
1506649775.7,286047001.4,N
1506649795.5,286046999.7,N
1506649815.3,286047001.4,N
1506649835.2,286047001.9,N
1506649855.9,286046999.2,N
1506649875.7,286046995.4,N
1506649895.5,286046995.2,N
1506649915.4,286046998.0,N
1506649935.2,286046999.6,N
1506649955.0,286046996.3,N
1506649955.9,286046996.3,N
1506649975.8,286046992.5,N
1506649995.6,286047000.7,N
1506650015.4,286047000.5,N
1506650035.3,286047006.0,N
1506650055.1,286047008.8,N
1506650075.8,286047010.9,N
1506650095.7,286047014.1,Y
1506650115.5,286047021.5,P
1506650135.3,286047020.7,N
1506650155.2,286047025.2,N
1506650175.9,286047022.7,N
1506650195.7,286047025.7,N
1506650215.6,286047029.9,Y
1506650235.4,286047006.2,P
1506650255.2,286047006.9,N
1506650275.1,286047007.1,N
1506650276.0,286047007.1,N
1506650295.8,286047010.0,N
1506650315.6,286047009.8,N
1506650335.5,286047012.6,Y
1506650355.3,286047004.6,P
1506650375.1,286047005.1,N
1506650395.9,286047005.4,N
